Regional Weather Roundup
Issued by NWS

Home | Current Version | Previous Version | Text Only | Print | Product List | Glossary On
Versions: 1 2 3 4 5 6 7 8 9 10 11 12 13 14 15 16 17 18 19 20 21 22 23 24 25 26 27 28 29 30 31 32 33 34 35 36 37 38 39 40 41 42 43 44 45 46 47 48 49 50
000
ASUS42 KKEY 031110
RWRKEY

FLORIDA REGIONAL WEATHER ROUNDUP FOR THE FLORIDA KEYS
NATIONAL WEATHER SERVICE KEY WEST FLORIDA
700 AM EDT THU SEP 03 2015

...SOUTH FLORIDA AND THE KEYS...

CITY           SKY/WX    TMP DP  RH WIND       PRES   REMARKS
FORT MYERS     PTCLDY    79  76  90 CALM      29.98R
SW REGIONAL AP PTCLDY    80  76  87 W3        29.98R
NAPLES         PTCLDY    80  75  84 CALM      29.97R
MIAMI          MOCLDY    81  78  91 W5        29.98R
WEST KENDALL   CLEAR     76  76 100 NW3       29.98R
HOMESTEAD      CLEAR     78  75  91 NW2       29.97R
MARATHON       CLEAR     83  76  79 S3        29.97R HX  91
BOCA CHICA NAS PTCLDY    82  75  79 CALM      29.97S
KEY WEST INTL  CLEAR     84  76  76 SE3       29.97S HX  93

...INTERNATIONAL WEATHER...

CITY           SKY/WX    TMP DP  RH WIND       PRES   REMARKS
NASSAU BAHAMAS PTCLDY    79  73  83 CALM      29.97S
CANCUN MEXICO  PTCLDY    77  77 100 CALM      29.95S
COZUMEL MEXICO PTCLDY    72  72 100 CALM      29.94S

ADJACENT COASTAL WATERS...

STATION/POSITION TIME  SKY/WX   TEMP    WIND        PRES    WAVE
                                AIR SEA DIR/SP/G            HT/PER
                 (UTC)          (F)     (DEG/KT/KT) (MB)    (FT/S)
PULASKI SHOAL LI 1000                                 N/A
SAND KEY         1050            85     190/  2     1015.0R
SOMBRERO KEY     NOT AVBL
LONG KEY         1000            84 87  150/  6/  7 1015.4F
MOLASSES REEF    1100            84 87  130/  4/  5 1014.7R
FOWEY ROCKS      NOT AVBL

$$


USA.gov is the U.S. government's official web portal to all federal, state and local government web resources and services.